Saginaw Browne, MI

9:28 PM EDT on September 25, 2017 (GMT -0400)
Saginaw County-Browne

Weather History for KHYX - April, 2014

Change the Weather History Date:

Thursday, April 10, 2014

  Actual Average (KMBS) Record (KMBS)
Temperature  
Mean Temperature 56 °F -  
Max Temperature 68 °F 51 °F 82 °F (2011)
Min Temperature 44 °F 33 °F 19 °F (1997)
Degree Days  
Heating Degree Days 9    
Growing Degree Days 6 (Base 50)    
Moisture  
Dew Point 34 °F    
Average Humidity 47    
Maximum Humidity 62    
Minimum Humidity 28    
Precipitation  
Precipitation 0.00 in - - ()
Sea Level Pressure  
Sea Level Pressure 29.73 in    
Wind  
Wind Speed 16 mph (WSW)    
Max Wind Speed 29 mph    
Max Gust Speed 36 mph    
Visibility 10 miles    
Events Rain    
Averages and records for this station are not official NWS values.
T = Trace of Precipitation, MM = Missing Value Source: NWS Daily Summary

Daily Weather History Graph

Daily Weather History Graph

Search for Another Location

Airport or City:

Trip Planner

Search our weather history database for the weather conditions in past years. The results will help you decide how hot, cold, wet, or windy it might be!

Date:

Astronomy

Apr. 10, 2014 Rise Set
Actual Time 7:01 AM EDT 8:12 PM EDT
Civil Twilight 6:32 AM EDT 8:42 PM EDT
Nautical Twilight 5:56 AM EDT 9:17 PM EDT
Astronomical Twilight 5:19 AM EDT 9:54 PM EDT
Moon 3:48 PM EDT (4/10) 4:31 AM EDT (4/10)
Length of Visible Light 14h 10m
Length of Day
13h 11m
Waxing Gibbous, 79% of the Moon is Illuminated
Apr 10
Waxing Gibbous
Apr 15
Full
Apr 22
Last Quarter
Apr 29
New
May 6
First Quarter

Hourly Weather History & Observations

Time (EDT) Temp. Windchill Dew Point Humidity Pressure Visibility Wind Dir Wind Speed Gust Speed Precip Events Conditions
12:14 AM 50.0 °F - 30.2 °F 47% 29.84 in 10.0 mi SSW 12.7 mph - N/A   Scattered Clouds
12:35 AM 50.0 °F - 32.0 °F 50% 29.84 in 10.0 mi SSW 15.0 mph - N/A   Mostly Cloudy
12:55 AM 48.2 °F - 32.0 °F 54% 29.83 in 10.0 mi SSW 15.0 mph - N/A   Scattered Clouds
1:14 AM 48.2 °F - 32.0 °F 54% 29.82 in 10.0 mi SSW 15.0 mph - N/A   Clear
1:35 AM 48.2 °F - 32.0 °F 54% 29.82 in 10.0 mi SSW 13.8 mph 19.6 mph N/A   Clear
1:55 AM 48.2 °F - 32.0 °F 54% 29.81 in 10.0 mi SSW 13.8 mph - N/A   Clear
2:14 AM 48.2 °F - 32.0 °F 54% 29.81 in 10.0 mi SSW 13.8 mph 19.6 mph N/A   Scattered Clouds
2:35 AM 48.2 °F - 32.0 °F 54% 29.80 in 10.0 mi SW 13.8 mph - N/A   Mostly Cloudy
2:55 AM 48.2 °F - 32.0 °F 54% 29.79 in 10.0 mi SSW 13.8 mph - N/A   Scattered Clouds
3:15 AM 48.2 °F - 32.0 °F 54% 29.78 in 10.0 mi SSW 16.1 mph - N/A   Clear
3:35 AM 50.0 °F - 32.0 °F 50% 29.77 in 10.0 mi SSW 13.8 mph 20.7 mph N/A   Clear
3:55 AM 50.0 °F - 32.0 °F 50% 29.76 in 10.0 mi SSW 16.1 mph - N/A   Clear
4:15 AM 50.0 °F - 32.0 °F 50% 29.76 in 10.0 mi SW 16.1 mph 21.9 mph N/A   Clear
4:35 AM 50.0 °F - 32.0 °F 50% 29.75 in 10.0 mi SW 15.0 mph - N/A   Clear
4:55 AM 50.0 °F - 32.0 °F 50% 29.75 in 10.0 mi SW 15.0 mph 21.9 mph N/A   Clear
5:15 AM 50.0 °F - 32.0 °F 50% 29.75 in 10.0 mi SW 13.8 mph 20.7 mph N/A   Clear
5:35 AM 48.2 °F - 32.0 °F 54% 29.75 in 10.0 mi SW 12.7 mph 21.9 mph N/A   Clear
5:55 AM 48.2 °F - 32.0 °F 54% 29.74 in 10.0 mi SSW 15.0 mph - N/A   Clear
6:15 AM 50.0 °F - 32.0 °F 50% 29.72 in 10.0 mi SSW 18.4 mph - N/A   Clear
6:35 AM 50.0 °F - 32.0 °F 50% 29.72 in 10.0 mi SSW 18.4 mph 24.2 mph N/A   Clear
6:55 AM 50.0 °F - 32.0 °F 50% 29.72 in 10.0 mi SSW 17.3 mph 24.2 mph N/A   Clear
7:15 AM 50.0 °F - 32.0 °F 50% 29.72 in 10.0 mi SSW 16.1 mph - N/A   Clear
7:35 AM 50.0 °F - 32.0 °F 50% 29.72 in 10.0 mi SSW 16.1 mph 21.9 mph N/A   Clear
7:55 AM 51.8 °F - 32.0 °F 47% 29.71 in 10.0 mi SSW 16.1 mph 20.7 mph N/A   Clear
8:15 AM 51.8 °F - 32.0 °F 47% 29.71 in 10.0 mi SSW 16.1 mph 21.9 mph N/A   Clear
8:35 AM 51.8 °F - 32.0 °F 47% 29.70 in 10.0 mi SSW 19.6 mph 24.2 mph N/A   Clear
8:55 AM 53.6 °F - 32.0 °F 44% 29.69 in 10.0 mi SSW 19.6 mph 26.5 mph N/A   Clear
9:15 AM 55.4 °F - 32.0 °F 41% 29.68 in 10.0 mi SSW 20.7 mph 27.6 mph N/A   Clear
9:35 AM 55.4 °F - 32.0 °F 41% 29.68 in 10.0 mi SSW 21.9 mph 27.6 mph N/A   Clear
9:55 AM 59.0 °F - 32.0 °F 36% 29.67 in 10.0 mi SSW 20.7 mph 28.8 mph N/A   Clear
10:15 AM 59.0 °F - 32.0 °F 36% 29.67 in 10.0 mi SW 20.7 mph 28.8 mph N/A   Clear
10:35 AM 60.8 °F - 32.0 °F 34% 29.67 in 10.0 mi SW 21.9 mph 27.6 mph N/A   Clear
10:55 AM 62.6 °F - 32.0 °F 32% 29.65 in 10.0 mi SW 23.0 mph 34.5 mph N/A   Clear
11:15 AM 62.6 °F - 33.8 °F 34% 29.64 in 10.0 mi SW 26.5 mph 32.2 mph N/A   Clear
11:35 AM 64.4 °F - 33.8 °F 32% 29.64 in 10.0 mi SW 26.5 mph 35.7 mph N/A   Clear
11:54 AM 64.4 °F - 33.8 °F 32% 29.62 in 10.0 mi SW 21.9 mph 35.7 mph N/A   Clear
12:15 PM 64.4 °F - 33.8 °F 32% 29.62 in 10.0 mi WSW 27.6 mph 33.4 mph N/A   Clear
12:35 PM 66.2 °F - 33.8 °F 30% 29.60 in 10.0 mi WSW 24.2 mph 31.1 mph N/A   Clear
12:54 PM 68.0 °F - 35.6 °F 30% 29.59 in 10.0 mi WSW 17.3 mph 33.4 mph N/A   Clear
1:15 PM 68.0 °F - 33.8 °F 28% 29.59 in 10.0 mi WSW 23.0 mph 33.4 mph N/A   Clear
1:35 PM 68.0 °F - 35.6 °F 30% 29.62 in 10.0 mi West 21.9 mph 29.9 mph N/A   Clear
1:54 PM 68.0 °F - 33.8 °F 28% 29.62 in 10.0 mi WSW 28.8 mph 34.5 mph N/A   Mostly Cloudy
2:15 PM 64.4 °F - 33.8 °F 32% 29.63 in 10.0 mi West 25.3 mph 32.2 mph N/A   Overcast
2:35 PM 64.4 °F - 35.6 °F 34% 29.63 in 10.0 mi West 21.9 mph 27.6 mph N/A   Mostly Cloudy
2:54 PM 62.6 °F - 35.6 °F 37% 29.62 in 10.0 mi West 19.6 mph 25.3 mph N/A   Mostly Cloudy
3:15 PM 60.8 °F - 35.6 °F 39% 29.64 in 10.0 mi West 19.6 mph 27.6 mph N/A   Overcast
3:35 PM 59.0 °F - 39.2 °F 48% 29.66 in 10.0 mi West 23.0 mph 28.8 mph N/A Rain Light Rain
3:55 PM 59.0 °F - 37.4 °F 45% 29.67 in 10.0 mi WSW 17.3 mph 23.0 mph N/A   Overcast
4:15 PM 60.8 °F - 35.6 °F 39% 29.67 in 10.0 mi West 16.1 mph 20.7 mph N/A   Overcast
4:35 PM 59.0 °F - 39.2 °F 48% 29.68 in 10.0 mi WNW 25.3 mph 29.9 mph N/A   Mostly Cloudy
4:55 PM 55.4 °F - 39.2 °F 54% 29.70 in 10.0 mi WNW 16.1 mph 26.5 mph N/A   Overcast
5:15 PM 55.4 °F - 39.2 °F 54% 29.71 in 10.0 mi WNW 13.8 mph 20.7 mph N/A   Overcast
5:35 PM 55.4 °F - 39.2 °F 54% 29.71 in 10.0 mi West 11.5 mph - N/A   Overcast
5:55 PM 55.4 °F - 37.4 °F 51% 29.72 in 10.0 mi West 15.0 mph - N/A   Mostly Cloudy
6:15 PM 55.4 °F - 39.2 °F 54% 29.73 in 10.0 mi West 10.4 mph - N/A   Mostly Cloudy
6:35 PM 55.4 °F - 39.2 °F 54% 29.74 in 10.0 mi West 9.2 mph - N/A   Mostly Cloudy
6:55 PM 57.2 °F - 39.2 °F 51% 29.75 in 10.0 mi WNW 15.0 mph 20.7 mph N/A   Clear
7:15 PM 55.4 °F - 37.4 °F 51% 29.76 in 10.0 mi West 11.5 mph - N/A   Clear
7:35 PM 55.4 °F - 37.4 °F 51% 29.76 in 10.0 mi WNW 11.5 mph - N/A   Clear
7:55 PM 55.4 °F - 37.4 °F 51% 29.78 in 10.0 mi West 13.8 mph - N/A   Clear
8:15 PM 53.6 °F - 37.4 °F 54% 29.79 in 10.0 mi West 9.2 mph - N/A   Clear
8:35 PM 53.6 °F - 37.4 °F 54% 29.80 in 10.0 mi West 9.2 mph - N/A   Clear
8:55 PM 51.8 °F - 35.6 °F 54% 29.81 in 10.0 mi West 9.2 mph - N/A   Clear
9:15 PM 51.8 °F - 35.6 °F 54% 29.82 in 10.0 mi West 8.1 mph - N/A   Clear
9:35 PM 51.8 °F - 35.6 °F 54% 29.83 in 10.0 mi West 8.1 mph - N/A   Clear
9:55 PM 50.0 °F - 35.6 °F 58% 29.84 in 10.0 mi WSW 6.9 mph - N/A   Clear
10:15 PM 50.0 °F - 35.6 °F 58% 29.85 in 10.0 mi WSW 6.9 mph - N/A   Clear
10:35 PM 50.0 °F - 33.8 °F 54% 29.86 in 10.0 mi WSW 6.9 mph - N/A   Clear
10:55 PM 46.4 °F 42.9 °F 33.8 °F 62% 29.86 in 10.0 mi WSW 6.9 mph - N/A   Clear
11:15 PM 46.4 °F 42.4 °F 33.8 °F 62% 29.86 in 10.0 mi WSW 8.1 mph - N/A   Clear
11:35 PM 44.6 °F 40.7 °F 32.0 °F 61% 29.86 in 10.0 mi WSW 6.9 mph - N/A   Clear
11:55 PM 46.4 °F 41.9 °F 32.0 °F 57% 29.87 in 10.0 mi SW 9.2 mph - N/A   Clear